Year,Month,Day,Hour,Minute,Value (Times are PST for temperature in C)
2010,05,08,00,00,8.20
2010,05,08,00,01,8.20
2010,05,08,00,02,8.20
2010,05,08,00,03,8.20
2010,05,08,00,04,8.10
2010,05,08,00,05,8.10
2010,05,08,00,06,8.10
2010,05,08,00,07,8.10
2010,05,08,00,08,8.10
2010,05,08,00,09,8.10
2010,05,08,00,10,8.10
2010,05,08,00,11,8.10
2010,05,08,00,12,8.10
2010,05,08,00,13,8.10
2010,05,08,00,14,8.10
2010,05,08,00,15,8.10
2010,05,08,00,16,8.10
2010,05,08,00,17,8.10
2010,05,08,00,18,8.10
2010,05,08,00,19,8.10
2010,05,08,00,20,8.10
2010,05,08,00,21,8.00
2010,05,08,00,22,8.00
2010,05,08,00,23,8.00
2010,05,08,00,24,8.00
2010,05,08,00,25,8.00
2010,05,08,00,26,7.90
2010,05,08,00,27,7.90
2010,05,08,00,28,7.90
2010,05,08,00,29,7.90
2010,05,08,00,30,7.90
2010,05,08,00,31,7.90
2010,05,08,00,32,7.90
2010,05,08,00,33,7.90
2010,05,08,00,34,7.80
2010,05,08,00,35,7.80
2010,05,08,00,36,7.80
2010,05,08,00,37,7.80
2010,05,08,00,38,7.80
2010,05,08,00,39,7.80
2010,05,08,00,40,7.80
2010,05,08,00,41,7.80
2010,05,08,00,42,7.70
2010,05,08,00,43,7.70
2010,05,08,00,44,7.70
2010,05,08,00,45,7.70
2010,05,08,00,46,7.70
2010,05,08,00,47,7.70
2010,05,08,00,48,7.70
2010,05,08,00,49,7.70
2010,05,08,00,50,7.70
2010,05,08,00,51,7.70
2010,05,08,00,52,7.70
2010,05,08,00,53,7.70
2010,05,08,00,54,7.70
2010,05,08,00,55,7.70
2010,05,08,00,56,7.70
2010,05,08,00,57,7.70
2010,05,08,00,58,7.70
2010,05,08,00,59,7.60
2010,05,08,01,00,7.60
2010,05,08,01,01,7.60
2010,05,08,01,02,7.60
2010,05,08,01,03,7.60
2010,05,08,01,04,7.60
2010,05,08,01,05,7.60
2010,05,08,01,06,7.60
2010,05,08,01,07,7.60
2010,05,08,01,08,7.60
2010,05,08,01,09,7.60
2010,05,08,01,10,7.60
2010,05,08,01,11,7.60
2010,05,08,01,12,7.60
2010,05,08,01,13,7.60
2010,05,08,01,14,7.60
2010,05,08,01,15,7.50
2010,05,08,01,16,7.50
2010,05,08,01,17,7.50
2010,05,08,01,18,7.50
2010,05,08,01,19,7.50
2010,05,08,01,20,7.50
2010,05,08,01,21,7.50
2010,05,08,01,22,7.40
2010,05,08,01,23,7.40
2010,05,08,01,24,7.40
2010,05,08,01,25,7.40
2010,05,08,01,26,7.40
2010,05,08,01,27,7.40
2010,05,08,01,28,7.40
2010,05,08,01,29,7.40
2010,05,08,01,30,7.40
2010,05,08,01,31,7.40
2010,05,08,01,32,7.30
2010,05,08,01,33,7.30
2010,05,08,01,34,7.30
2010,05,08,01,35,7.30
2010,05,08,01,36,7.30
2010,05,08,01,37,7.30
2010,05,08,01,38,7.30
2010,05,08,01,39,7.30
2010,05,08,01,40,7.30
2010,05,08,01,41,7.30
2010,05,08,01,42,7.30
2010,05,08,01,43,7.30
2010,05,08,01,44,7.30
2010,05,08,01,45,7.30
2010,05,08,01,46,7.20
2010,05,08,01,47,7.20
2010,05,08,01,48,7.20
2010,05,08,01,49,7.20
2010,05,08,01,50,7.20
2010,05,08,01,51,7.20
2010,05,08,01,52,7.20
2010,05,08,01,53,7.20
2010,05,08,01,54,7.20
2010,05,08,01,55,7.10
2010,05,08,01,56,7.10
2010,05,08,01,57,7.10
2010,05,08,01,58,7.10
2010,05,08,01,59,7.10
2010,05,08,02,00,7.00
2010,05,08,02,01,7.00
2010,05,08,02,02,7.00
2010,05,08,02,03,7.00
2010,05,08,02,04,7.00
2010,05,08,02,05,7.00
2010,05,08,02,06,7.00
2010,05,08,02,07,7.10
2010,05,08,02,08,7.10
2010,05,08,02,09,7.10
2010,05,08,02,10,7.10
2010,05,08,02,11,7.10
2010,05,08,02,12,7.10
2010,05,08,02,13,7.10
2010,05,08,02,14,7.20
2010,05,08,02,15,7.20
2010,05,08,02,16,7.20
2010,05,08,02,17,7.20
2010,05,08,02,18,7.20
2010,05,08,02,19,7.20
2010,05,08,02,20,7.30
2010,05,08,02,21,7.30
2010,05,08,02,22,7.30
2010,05,08,02,23,7.30
2010,05,08,02,24,7.30
2010,05,08,02,25,7.30
2010,05,08,02,26,7.30
2010,05,08,02,27,7.30
2010,05,08,02,28,7.30
2010,05,08,02,29,7.30
2010,05,08,02,30,7.30
2010,05,08,02,31,7.30
2010,05,08,02,32,7.30
2010,05,08,02,33,7.30
2010,05,08,02,34,7.30
2010,05,08,02,35,7.30
2010,05,08,02,36,7.30
2010,05,08,02,37,7.30
2010,05,08,02,38,7.30
2010,05,08,02,39,7.30
2010,05,08,02,40,7.30
2010,05,08,02,41,7.20
2010,05,08,02,42,7.20
2010,05,08,02,43,7.20
2010,05,08,02,44,7.20
2010,05,08,02,45,7.20
2010,05,08,02,46,7.20
2010,05,08,02,47,7.20
2010,05,08,02,48,7.20
2010,05,08,02,49,7.20
2010,05,08,02,50,7.20
2010,05,08,02,51,7.20
2010,05,08,02,52,7.30
2010,05,08,02,53,7.30
2010,05,08,02,54,7.30
2010,05,08,02,55,7.30
2010,05,08,02,56,7.30
2010,05,08,02,57,7.30
2010,05,08,02,58,7.30
2010,05,08,02,59,7.30
2010,05,08,03,00,7.30
2010,05,08,03,01,7.30
2010,05,08,03,02,7.30
2010,05,08,03,03,7.30
2010,05,08,03,04,7.30
2010,05,08,03,05,7.30
2010,05,08,03,06,7.30
2010,05,08,03,07,7.20
2010,05,08,03,08,7.20
2010,05,08,03,09,7.20
2010,05,08,03,10,7.20
2010,05,08,03,11,7.20
2010,05,08,03,12,7.20
2010,05,08,03,13,7.20
2010,05,08,03,14,7.20
2010,05,08,03,15,7.20
2010,05,08,03,16,7.20
2010,05,08,03,17,7.20
2010,05,08,03,18,7.20
2010,05,08,03,19,7.10
2010,05,08,03,20,7.10
2010,05,08,03,21,7.10
2010,05,08,03,22,7.10
2010,05,08,03,23,7.10
2010,05,08,03,24,7.10
2010,05,08,03,25,7.10
2010,05,08,03,26,7.10
2010,05,08,03,27,7.00
2010,05,08,03,28,7.00
2010,05,08,03,29,7.00
2010,05,08,03,30,7.00
2010,05,08,03,31,7.00
2010,05,08,03,32,7.00
2010,05,08,03,33,7.00
2010,05,08,03,34,7.00
2010,05,08,03,35,7.00
2010,05,08,03,36,7.00
2010,05,08,03,37,7.00
2010,05,08,03,38,7.00
2010,05,08,03,39,7.00
2010,05,08,03,40,7.00
2010,05,08,03,41,6.90
2010,05,08,03,42,6.90
2010,05,08,03,43,6.90
2010,05,08,03,44,6.90
2010,05,08,03,45,6.90
2010,05,08,03,46,6.90
2010,05,08,03,47,6.90
2010,05,08,03,48,6.90
2010,05,08,03,49,6.90
2010,05,08,03,50,6.90
2010,05,08,03,51,6.90
2010,05,08,03,52,6.90
2010,05,08,03,53,6.90
2010,05,08,03,54,6.90
2010,05,08,03,55,6.90
2010,05,08,03,56,6.90
2010,05,08,03,57,6.90
2010,05,08,03,58,6.90
2010,05,08,03,59,6.90
2010,05,08,04,00,6.90
2010,05,08,04,01,6.90
2010,05,08,04,02,6.90
2010,05,08,04,03,6.90
2010,05,08,04,04,6.80
2010,05,08,04,05,6.80
2010,05,08,04,06,6.80
2010,05,08,04,07,6.80
2010,05,08,04,08,6.80
2010,05,08,04,09,6.80
2010,05,08,04,10,6.80
2010,05,08,04,11,6.80
2010,05,08,04,12,6.80
2010,05,08,04,13,6.70
2010,05,08,04,14,6.70
2010,05,08,04,15,6.70
2010,05,08,04,16,6.70
2010,05,08,04,17,6.70
2010,05,08,04,18,6.70
2010,05,08,04,19,6.70
2010,05,08,04,20,6.70
2010,05,08,04,21,6.70
2010,05,08,04,22,6.60
2010,05,08,04,23,6.60
2010,05,08,04,24,6.60
2010,05,08,04,25,6.60
2010,05,08,04,26,6.60
2010,05,08,04,27,6.50
2010,05,08,04,28,6.50
2010,05,08,04,29,6.50
2010,05,08,04,30,6.40
2010,05,08,04,31,6.40
2010,05,08,04,32,6.40
2010,05,08,04,33,6.40
2010,05,08,04,34,6.40
2010,05,08,04,35,6.40
2010,05,08,04,36,6.40
2010,05,08,04,37,6.40
2010,05,08,04,38,6.40
2010,05,08,04,39,6.30
2010,05,08,04,40,6.30
2010,05,08,04,41,6.30
2010,05,08,04,42,6.30
2010,05,08,04,43,6.30
2010,05,08,04,44,6.30
2010,05,08,04,45,6.30
2010,05,08,04,46,6.30
2010,05,08,04,47,6.30
2010,05,08,04,48,6.30
2010,05,08,04,49,6.30
2010,05,08,04,50,6.30
2010,05,08,04,51,6.30
2010,05,08,04,52,6.20
2010,05,08,04,53,6.20
2010,05,08,04,54,6.20
2010,05,08,04,55,6.20
2010,05,08,04,56,6.20
2010,05,08,04,57,6.20
2010,05,08,04,58,6.20
2010,05,08,04,59,6.20
2010,05,08,05,00,6.20
2010,05,08,05,01,6.20
2010,05,08,05,02,6.20
2010,05,08,05,03,6.20
2010,05,08,05,04,6.20
2010,05,08,05,05,6.20
2010,05,08,05,06,6.20
2010,05,08,05,07,6.20
2010,05,08,05,08,6.20
2010,05,08,05,09,6.20
2010,05,08,05,10,6.20
2010,05,08,05,11,6.20
2010,05,08,05,12,6.10
2010,05,08,05,13,6.10
2010,05,08,05,14,6.10
2010,05,08,05,15,6.10
2010,05,08,05,16,6.10
2010,05,08,05,17,6.10
2010,05,08,05,18,6.10
2010,05,08,05,19,6.10
2010,05,08,05,20,6.10
2010,05,08,05,21,6.00
2010,05,08,05,22,6.00
2010,05,08,05,23,6.00
2010,05,08,05,24,5.90
2010,05,08,05,25,5.90
2010,05,08,05,26,5.90
2010,05,08,05,27,5.90
2010,05,08,05,28,5.90
2010,05,08,05,29,5.90
2010,05,08,05,30,5.90
2010,05,08,05,31,5.90
2010,05,08,05,32,5.90
2010,05,08,05,33,5.90
2010,05,08,05,34,5.80
2010,05,08,05,35,5.80
2010,05,08,05,36,5.80
2010,05,08,05,37,5.80
2010,05,08,05,38,5.80
2010,05,08,05,39,5.80
2010,05,08,05,40,5.80
2010,05,08,05,41,5.80
2010,05,08,05,42,5.80
2010,05,08,05,43,5.80
2010,05,08,05,44,5.70
2010,05,08,05,45,5.70
2010,05,08,05,46,5.70
2010,05,08,05,47,5.70
2010,05,08,05,48,5.70
2010,05,08,05,49,5.70
2010,05,08,05,50,5.70
2010,05,08,05,51,5.70
2010,05,08,05,52,5.70
2010,05,08,05,53,5.70
2010,05,08,05,54,5.70
2010,05,08,05,55,5.70
2010,05,08,05,56,5.70
2010,05,08,05,57,5.70
2010,05,08,05,58,5.70
2010,05,08,05,59,5.70
2010,05,08,06,00,5.70
2010,05,08,06,01,5.70
2010,05,08,06,02,5.70
2010,05,08,06,03,5.70
2010,05,08,06,04,5.70
2010,05,08,06,05,5.70
2010,05,08,06,06,5.70
2010,05,08,06,07,5.70
2010,05,08,06,08,5.70
2010,05,08,06,09,5.70
2010,05,08,06,10,5.70
2010,05,08,06,11,5.70
2010,05,08,06,12,5.70
2010,05,08,06,13,5.70
2010,05,08,06,14,5.70
2010,05,08,06,15,5.70
2010,05,08,06,16,5.70
2010,05,08,06,17,5.70
2010,05,08,06,18,5.70
2010,05,08,06,19,5.80
2010,05,08,06,20,5.80
2010,05,08,06,21,5.80
2010,05,08,06,22,5.80
2010,05,08,06,23,5.80
2010,05,08,06,24,5.80
2010,05,08,06,25,5.80
2010,05,08,06,26,5.80
2010,05,08,06,27,5.80
2010,05,08,06,28,5.80
2010,05,08,06,29,5.80
2010,05,08,06,30,5.80
2010,05,08,06,31,5.80
2010,05,08,06,32,5.80
2010,05,08,06,33,5.80
2010,05,08,06,34,5.80
2010,05,08,06,35,5.80
2010,05,08,06,36,5.80
2010,05,08,06,37,5.80
2010,05,08,06,38,5.80
2010,05,08,06,39,5.80
2010,05,08,06,40,5.80
2010,05,08,06,41,5.80
2010,05,08,06,42,5.80
2010,05,08,06,43,5.80
2010,05,08,06,44,5.80
2010,05,08,06,45,5.80
2010,05,08,06,46,5.80
2010,05,08,06,47,5.80
2010,05,08,06,48,5.80
2010,05,08,06,49,5.80
2010,05,08,06,50,5.80
2010,05,08,06,51,5.80
2010,05,08,06,52,5.80
2010,05,08,06,53,5.80
2010,05,08,06,54,5.80
2010,05,08,06,55,5.80
2010,05,08,06,56,5.80
2010,05,08,06,57,5.90
2010,05,08,06,58,5.80
2010,05,08,06,59,5.90
2010,05,08,07,00,5.90
2010,05,08,07,01,5.90
2010,05,08,07,02,5.90
2010,05,08,07,03,5.90
2010,05,08,07,04,5.90
2010,05,08,07,05,5.90
2010,05,08,07,06,5.90
2010,05,08,07,07,6.00
2010,05,08,07,08,6.00
2010,05,08,07,09,6.00
2010,05,08,07,10,6.00
2010,05,08,07,11,6.10
2010,05,08,07,12,6.10
2010,05,08,07,13,6.10
2010,05,08,07,14,6.10
2010,05,08,07,15,6.10
2010,05,08,07,16,6.10
2010,05,08,07,17,6.20
2010,05,08,07,18,6.20
2010,05,08,07,19,6.20
2010,05,08,07,20,6.20
2010,05,08,07,21,6.20
2010,05,08,07,22,6.20
2010,05,08,07,23,6.20
2010,05,08,07,24,6.30
2010,05,08,07,25,6.30
2010,05,08,07,26,6.30
2010,05,08,07,27,6.30
2010,05,08,07,28,6.30
2010,05,08,07,29,6.40
2010,05,08,07,30,6.40
2010,05,08,07,31,6.40
2010,05,08,07,32,6.50
2010,05,08,07,33,6.50
2010,05,08,07,34,6.60
2010,05,08,07,35,6.60
2010,05,08,07,36,6.70
2010,05,08,07,37,6.70
2010,05,08,07,38,6.70
2010,05,08,07,39,6.80
2010,05,08,07,40,6.80
2010,05,08,07,41,6.80
2010,05,08,07,42,6.90
2010,05,08,07,43,6.90
2010,05,08,07,44,6.90
2010,05,08,07,45,7.00
2010,05,08,07,46,7.00
2010,05,08,07,47,7.00
2010,05,08,07,48,7.10
2010,05,08,07,49,7.10
2010,05,08,07,50,7.10
2010,05,08,07,51,7.10
2010,05,08,07,52,7.20
2010,05,08,07,53,7.20
2010,05,08,07,54,7.20
2010,05,08,07,55,7.20
2010,05,08,07,56,7.30
2010,05,08,07,57,7.30
2010,05,08,07,58,7.30
2010,05,08,07,59,7.40
2010,05,08,08,00,7.40
2010,05,08,08,01,7.40
2010,05,08,08,02,7.40
2010,05,08,08,03,7.50
2010,05,08,08,04,7.50
2010,05,08,08,05,7.60
2010,05,08,08,06,7.60
2010,05,08,08,07,7.60
2010,05,08,08,08,7.70
2010,05,08,08,09,7.70
2010,05,08,08,10,7.80
2010,05,08,08,11,7.80
2010,05,08,08,12,7.80
2010,05,08,08,13,7.90
2010,05,08,08,14,7.90
2010,05,08,08,15,7.90
2010,05,08,08,16,7.90
2010,05,08,08,17,7.90
2010,05,08,08,18,8.00
2010,05,08,08,19,8.00
2010,05,08,08,20,8.00
2010,05,08,08,21,8.00
2010,05,08,08,22,8.10
2010,05,08,08,23,8.10
2010,05,08,08,24,8.10
2010,05,08,08,25,8.20
2010,05,08,08,26,8.20
2010,05,08,08,27,8.20
2010,05,08,08,28,8.30
2010,05,08,08,29,8.30
2010,05,08,08,30,8.40
2010,05,08,08,31,8.40
2010,05,08,08,32,8.50
2010,05,08,08,33,8.50
2010,05,08,08,34,8.60
2010,05,08,08,35,8.60
2010,05,08,08,36,8.70
2010,05,08,08,37,8.80
2010,05,08,08,38,8.80
2010,05,08,08,39,8.90
2010,05,08,08,40,9.00
2010,05,08,08,41,9.00
2010,05,08,08,42,9.10
2010,05,08,08,43,9.20
2010,05,08,08,44,9.20
2010,05,08,08,45,9.30
2010,05,08,08,46,9.30
2010,05,08,08,47,9.40
2010,05,08,08,48,9.50
2010,05,08,08,49,9.50
2010,05,08,08,50,9.60
2010,05,08,08,51,9.60
2010,05,08,08,52,9.70
2010,05,08,08,53,9.70
2010,05,08,08,54,9.80
2010,05,08,08,55,9.80
2010,05,08,08,56,9.90
2010,05,08,08,57,9.90
2010,05,08,08,58,10.00
2010,05,08,08,59,10.00
2010,05,08,09,00,10.10
2010,05,08,09,01,10.10
2010,05,08,09,02,10.20
2010,05,08,09,03,10.30
2010,05,08,09,04,10.40
2010,05,08,09,05,10.40
2010,05,08,09,06,10.50
2010,05,08,09,07,10.60
2010,05,08,09,08,10.70
2010,05,08,09,09,10.80
2010,05,08,09,10,10.90
2010,05,08,09,11,10.90
2010,05,08,09,12,11.00
2010,05,08,09,13,11.00
2010,05,08,09,14,11.10
2010,05,08,09,15,11.10
2010,05,08,09,16,11.20
2010,05,08,09,17,11.20
2010,05,08,09,18,11.30
2010,05,08,09,19,11.30
2010,05,08,09,20,11.30
2010,05,08,09,21,11.30
2010,05,08,09,22,11.30
2010,05,08,09,23,11.30
2010,05,08,09,24,11.30
2010,05,08,09,25,11.30
2010,05,08,09,26,11.30
2010,05,08,09,27,11.30
2010,05,08,09,28,11.30
2010,05,08,09,29,11.40
2010,05,08,09,30,11.40
2010,05,08,09,31,11.40
2010,05,08,09,32,11.40
2010,05,08,09,33,11.50
2010,05,08,09,34,11.50
2010,05,08,09,35,11.50
2010,05,08,09,36,11.60
2010,05,08,09,37,11.60
2010,05,08,09,38,11.60
2010,05,08,09,39,11.70
2010,05,08,09,40,11.70
2010,05,08,09,41,11.70
2010,05,08,09,42,11.80
2010,05,08,09,43,11.80
2010,05,08,09,44,11.80
2010,05,08,09,45,11.80
2010,05,08,09,46,11.80
2010,05,08,09,47,11.80
2010,05,08,09,48,11.80
2010,05,08,09,49,11.80
2010,05,08,09,50,11.80
2010,05,08,09,51,11.90
2010,05,08,09,52,11.90
2010,05,08,09,53,11.90
2010,05,08,09,54,12.00
2010,05,08,09,55,12.00
2010,05,08,09,56,12.10
2010,05,08,09,57,12.20
2010,05,08,09,58,12.20
2010,05,08,09,59,12.20
2010,05,08,10,00,12.30
2010,05,08,10,01,12.30
2010,05,08,10,02,12.30
2010,05,08,10,03,12.30
2010,05,08,10,04,12.40
2010,05,08,10,05,12.40
2010,05,08,10,06,12.50
2010,05,08,10,07,12.50
2010,05,08,10,08,12.60
2010,05,08,10,09,12.60
2010,05,08,10,10,12.60
2010,05,08,10,11,12.60
2010,05,08,10,12,12.70
2010,05,08,10,13,12.70
2010,05,08,10,14,12.70
2010,05,08,10,15,12.80
2010,05,08,10,16,12.80
2010,05,08,10,17,12.80
2010,05,08,10,18,12.80
2010,05,08,10,19,12.90
2010,05,08,10,20,12.90
2010,05,08,10,21,12.90
2010,05,08,10,22,12.90
2010,05,08,10,23,12.90
2010,05,08,10,24,12.90
2010,05,08,10,25,12.90
2010,05,08,10,26,12.90
2010,05,08,10,27,12.90
2010,05,08,10,28,12.90
2010,05,08,10,29,13.00
2010,05,08,10,30,13.00
2010,05,08,10,31,13.10
2010,05,08,10,32,13.10
2010,05,08,10,33,13.10
2010,05,08,10,34,13.10
2010,05,08,10,35,13.10
2010,05,08,10,36,13.10
2010,05,08,10,37,13.10
2010,05,08,10,38,13.20
2010,05,08,10,39,13.20
2010,05,08,10,40,13.20
2010,05,08,10,41,13.30
2010,05,08,10,42,13.30
2010,05,08,10,43,13.30
2010,05,08,10,44,13.30
2010,05,08,10,45,13.40
2010,05,08,10,46,13.40
2010,05,08,10,47,13.40
2010,05,08,10,48,13.40
2010,05,08,10,49,13.50
2010,05,08,10,50,13.60
2010,05,08,10,51,13.60
2010,05,08,10,52,13.70
2010,05,08,10,53,13.70
2010,05,08,10,54,13.70
2010,05,08,10,55,13.70
2010,05,08,10,56,13.70
2010,05,08,10,57,13.70
2010,05,08,10,58,13.70
2010,05,08,10,59,13.70
2010,05,08,11,00,13.70
2010,05,08,11,01,13.70
2010,05,08,11,02,13.70
2010,05,08,11,03,13.70
2010,05,08,11,04,13.80
2010,05,08,11,05,13.80
2010,05,08,11,06,13.80
2010,05,08,11,07,13.90
2010,05,08,11,08,13.90
2010,05,08,11,09,14.00
2010,05,08,11,10,14.10
2010,05,08,11,11,14.10
2010,05,08,11,12,14.10
2010,05,08,11,13,14.20
2010,05,08,11,14,14.20
2010,05,08,11,15,14.20
2010,05,08,11,16,14.20
2010,05,08,11,17,14.20
2010,05,08,11,18,14.30
2010,05,08,11,19,14.30
2010,05,08,11,20,14.30
2010,05,08,11,21,14.30
2010,05,08,11,22,14.30
2010,05,08,11,23,14.40
2010,05,08,11,24,14.40
2010,05,08,11,25,14.40
2010,05,08,11,26,14.40
2010,05,08,11,27,14.40
2010,05,08,11,28,14.40
2010,05,08,11,29,14.40
2010,05,08,11,30,14.40
2010,05,08,11,31,14.50
2010,05,08,11,32,14.60
2010,05,08,11,33,14.60
2010,05,08,11,34,14.60
2010,05,08,11,35,14.60
2010,05,08,11,36,14.60
2010,05,08,11,37,14.60
2010,05,08,11,38,14.70
2010,05,08,11,39,14.70
2010,05,08,11,40,14.80
2010,05,08,11,41,14.80
2010,05,08,11,42,14.80
2010,05,08,11,43,14.70
2010,05,08,11,44,14.60
2010,05,08,11,45,14.60
2010,05,08,11,46,14.50
2010,05,08,11,47,14.50
2010,05,08,11,48,14.50
2010,05,08,11,49,14.50
2010,05,08,11,50,14.60
2010,05,08,11,51,14.60
2010,05,08,11,52,14.60
2010,05,08,11,53,14.60
2010,05,08,11,54,14.60
2010,05,08,11,55,14.60
2010,05,08,11,56,14.70
2010,05,08,11,57,14.70
2010,05,08,11,58,14.80
2010,05,08,11,59,14.80
2010,05,08,12,00,14.80
2010,05,08,12,01,14.90
2010,05,08,12,02,14.90
2010,05,08,12,03,14.90
2010,05,08,12,04,14.90
2010,05,08,12,05,14.90
2010,05,08,12,06,14.90
2010,05,08,12,07,14.90
2010,05,08,12,08,14.90
2010,05,08,12,09,14.90
2010,05,08,12,10,14.90
2010,05,08,12,11,14.90
2010,05,08,12,12,14.90
2010,05,08,12,13,14.90
2010,05,08,12,14,14.80
2010,05,08,12,15,14.80
2010,05,08,12,16,14.70
2010,05,08,12,17,14.70
2010,05,08,12,18,14.70
2010,05,08,12,19,14.70
2010,05,08,12,20,14.70
2010,05,08,12,21,14.80
2010,05,08,12,22,14.80
2010,05,08,12,23,14.80
2010,05,08,12,24,14.80
2010,05,08,12,25,14.90
2010,05,08,12,26,14.90
2010,05,08,12,27,14.90
2010,05,08,12,28,14.90
2010,05,08,12,29,15.00
2010,05,08,12,30,15.00
2010,05,08,12,31,15.10
2010,05,08,12,32,15.10
2010,05,08,12,33,15.20
2010,05,08,12,34,15.20
2010,05,08,12,35,15.20
2010,05,08,12,36,15.30
2010,05,08,12,37,15.40
2010,05,08,12,38,15.40
2010,05,08,12,39,15.40
2010,05,08,12,40,15.40
2010,05,08,12,41,15.50
2010,05,08,12,42,15.50
2010,05,08,12,43,15.50
2010,05,08,12,44,15.40
2010,05,08,12,45,15.40
2010,05,08,12,46,15.50
2010,05,08,12,47,15.50
2010,05,08,12,48,15.60
2010,05,08,12,49,15.70
2010,05,08,12,50,15.70
2010,05,08,12,51,15.80
2010,05,08,12,52,15.80
2010,05,08,12,53,15.70
2010,05,08,12,54,15.70
2010,05,08,12,55,15.60
2010,05,08,12,56,15.50
2010,05,08,12,57,15.40
2010,05,08,12,58,15.40
2010,05,08,12,59,15.40
2010,05,08,13,00,15.40
2010,05,08,13,01,15.40
2010,05,08,13,02,15.50
2010,05,08,13,03,15.50
2010,05,08,13,04,15.60
2010,05,08,13,05,15.70
2010,05,08,13,06,15.70
2010,05,08,13,07,15.80
2010,05,08,13,08,15.80
2010,05,08,13,09,15.80
2010,05,08,13,10,15.80
2010,05,08,13,11,15.80
2010,05,08,13,12,15.80
2010,05,08,13,13,15.80
2010,05,08,13,14,15.80
2010,05,08,13,15,15.80
2010,05,08,13,16,15.80
2010,05,08,13,17,15.80
2010,05,08,13,18,15.80
2010,05,08,13,19,15.80
2010,05,08,13,20,15.80
2010,05,08,13,21,15.80
2010,05,08,13,22,15.80
2010,05,08,13,23,15.80
2010,05,08,13,24,15.80
2010,05,08,13,25,15.90
2010,05,08,13,26,15.90
2010,05,08,13,27,16.00
2010,05,08,13,28,16.00
2010,05,08,13,29,16.10
2010,05,08,13,30,16.20
2010,05,08,13,31,16.20
2010,05,08,13,32,16.20
2010,05,08,13,33,16.20
2010,05,08,13,34,16.30
2010,05,08,13,35,16.30
2010,05,08,13,36,16.40
2010,05,08,13,37,16.40
2010,05,08,13,38,16.50
2010,05,08,13,39,16.60
2010,05,08,13,40,16.60
2010,05,08,13,41,16.70
2010,05,08,13,42,16.70
2010,05,08,13,43,16.70
2010,05,08,13,44,16.60
2010,05,08,13,45,16.60
2010,05,08,13,46,16.60
2010,05,08,13,47,16.60
2010,05,08,13,48,16.60
2010,05,08,13,49,16.60
2010,05,08,13,50,16.60
2010,05,08,13,51,16.60
2010,05,08,13,52,16.50
2010,05,08,13,53,16.60
2010,05,08,13,54,16.60
2010,05,08,13,55,16.60
2010,05,08,13,56,16.70
2010,05,08,13,57,16.70
2010,05,08,13,58,16.80
2010,05,08,13,59,16.80
2010,05,08,14,00,16.80
2010,05,08,14,01,16.80
2010,05,08,14,02,16.70
2010,05,08,14,03,16.60
2010,05,08,14,04,16.60
2010,05,08,14,05,16.60
2010,05,08,14,06,16.60
2010,05,08,14,07,16.60
2010,05,08,14,08,16.60
2010,05,08,14,09,16.60
2010,05,08,14,10,16.70
2010,05,08,14,11,16.80
2010,05,08,14,12,16.80
2010,05,08,14,13,16.80
2010,05,08,14,14,16.80
2010,05,08,14,15,16.80
2010,05,08,14,16,16.70
2010,05,08,14,17,16.70
2010,05,08,14,18,16.70
2010,05,08,14,19,16.70
2010,05,08,14,20,16.70
2010,05,08,14,21,16.70
2010,05,08,14,22,16.80
2010,05,08,14,23,16.80
2010,05,08,14,24,16.80
2010,05,08,14,25,16.90
2010,05,08,14,26,16.90
2010,05,08,14,27,17.00
2010,05,08,14,28,17.10
2010,05,08,14,29,17.20
2010,05,08,14,30,17.20
2010,05,08,14,31,17.20
2010,05,08,14,32,17.20
2010,05,08,14,33,17.20
2010,05,08,14,34,17.20
2010,05,08,14,35,17.10
2010,05,08,14,36,17.00
2010,05,08,14,37,17.00
2010,05,08,14,38,17.00
2010,05,08,14,39,17.00
2010,05,08,14,40,17.00
2010,05,08,14,41,17.00
2010,05,08,14,42,17.00
2010,05,08,14,43,16.90
2010,05,08,14,44,16.90
2010,05,08,14,45,16.90
2010,05,08,14,46,16.80
2010,05,08,14,47,16.90
2010,05,08,14,48,16.90
2010,05,08,14,49,16.90
2010,05,08,14,50,17.00
2010,05,08,14,51,17.00
2010,05,08,14,52,17.10
2010,05,08,14,53,17.10
2010,05,08,14,54,17.10
2010,05,08,14,55,17.10
2010,05,08,14,56,17.20
2010,05,08,14,57,17.20
2010,05,08,14,58,17.30
2010,05,08,14,59,17.30
2010,05,08,15,00,17.30
2010,05,08,15,01,17.30
2010,05,08,15,02,17.30
2010,05,08,15,03,17.30
2010,05,08,15,04,17.30
2010,05,08,15,05,17.30
2010,05,08,15,06,17.30
2010,05,08,15,07,17.30
2010,05,08,15,08,17.30
2010,05,08,15,09,17.30
2010,05,08,15,10,17.20
2010,05,08,15,11,17.10
2010,05,08,15,12,17.10
2010,05,08,15,13,17.10
2010,05,08,15,14,17.10
2010,05,08,15,15,17.00
2010,05,08,15,16,17.00
2010,05,08,15,17,17.00
2010,05,08,15,18,17.10
2010,05,08,15,19,17.10
2010,05,08,15,20,17.20
2010,05,08,15,21,17.30
2010,05,08,15,22,17.40
2010,05,08,15,23,17.50
2010,05,08,15,24,17.60
2010,05,08,15,25,17.60
2010,05,08,15,26,17.60
2010,05,08,15,27,17.50
2010,05,08,15,28,17.50
2010,05,08,15,29,17.50
2010,05,08,15,30,17.50
2010,05,08,15,31,17.60
2010,05,08,15,32,17.60
2010,05,08,15,33,17.60
2010,05,08,15,34,17.70
2010,05,08,15,35,17.70
2010,05,08,15,36,17.80
2010,05,08,15,37,17.80
2010,05,08,15,38,17.80
2010,05,08,15,39,17.80
2010,05,08,15,40,17.80
2010,05,08,15,41,17.70
2010,05,08,15,42,17.70
2010,05,08,15,43,17.70
2010,05,08,15,44,17.70
2010,05,08,15,45,17.70
2010,05,08,15,46,17.60
2010,05,08,15,47,17.50
2010,05,08,15,48,17.50
2010,05,08,15,49,17.40
2010,05,08,15,50,17.40
2010,05,08,15,51,17.40
2010,05,08,15,52,17.30
2010,05,08,15,53,17.40
2010,05,08,15,54,17.40
2010,05,08,15,55,17.40
2010,05,08,15,56,17.40
2010,05,08,15,57,17.30
2010,05,08,15,58,17.20
2010,05,08,15,59,17.10
2010,05,08,16,00,17.00
2010,05,08,16,01,16.90
2010,05,08,16,02,16.80
2010,05,08,16,03,16.80
2010,05,08,16,04,16.70
2010,05,08,16,05,16.70
2010,05,08,16,06,16.60
2010,05,08,16,07,16.50
2010,05,08,16,08,16.50
2010,05,08,16,09,16.40
2010,05,08,16,10,16.30
2010,05,08,16,11,16.20
2010,05,08,16,12,16.10
2010,05,08,16,13,15.90
2010,05,08,16,14,15.80
2010,05,08,16,15,15.80
2010,05,08,16,16,15.80
2010,05,08,16,17,15.70
2010,05,08,16,18,15.70
2010,05,08,16,19,15.70
2010,05,08,16,20,15.70
2010,05,08,16,21,15.60
2010,05,08,16,22,15.60
2010,05,08,16,23,15.60
2010,05,08,16,24,15.60
2010,05,08,16,25,15.50
2010,05,08,16,26,15.50
2010,05,08,16,27,15.30
2010,05,08,16,28,15.20
2010,05,08,16,29,15.10
2010,05,08,16,30,15.00
2010,05,08,16,31,14.90
2010,05,08,16,32,14.90
2010,05,08,16,33,14.80
2010,05,08,16,34,14.80
2010,05,08,16,35,14.70
2010,05,08,16,36,14.60
2010,05,08,16,37,14.60
2010,05,08,16,38,14.60
2010,05,08,16,39,14.60
2010,05,08,16,40,14.60
2010,05,08,16,41,14.60
2010,05,08,16,42,14.60
2010,05,08,16,43,14.60
2010,05,08,16,44,14.60
2010,05,08,16,45,14.60
2010,05,08,16,46,14.60
2010,05,08,16,47,14.70
2010,05,08,16,48,14.70
2010,05,08,16,49,14.80
2010,05,08,16,50,14.80
2010,05,08,16,51,14.80
2010,05,08,16,52,14.80
2010,05,08,16,53,14.80
2010,05,08,16,54,14.80
2010,05,08,16,55,14.80
2010,05,08,16,56,14.80
2010,05,08,16,57,14.80
2010,05,08,16,58,14.80
2010,05,08,16,59,14.80
2010,05,08,17,00,14.80
2010,05,08,17,01,14.80
2010,05,08,17,02,14.80
2010,05,08,17,03,14.80
2010,05,08,17,04,14.70
2010,05,08,17,05,14.70
2010,05,08,17,06,14.70
2010,05,08,17,07,14.60
2010,05,08,17,08,14.60
2010,05,08,17,09,14.60
2010,05,08,17,10,14.50
2010,05,08,17,11,14.50
2010,05,08,17,12,14.40
2010,05,08,17,13,14.40
2010,05,08,17,14,14.30
2010,05,08,17,15,14.30
2010,05,08,17,16,14.30
2010,05,08,17,17,14.30
2010,05,08,17,18,14.30
2010,05,08,17,19,14.30
2010,05,08,17,20,14.20
2010,05,08,17,21,14.20
2010,05,08,17,22,14.20
2010,05,08,17,23,14.10
2010,05,08,17,24,14.10
2010,05,08,17,25,14.00
2010,05,08,17,26,13.90
2010,05,08,17,27,13.90
2010,05,08,17,28,13.80
2010,05,08,17,29,13.70
2010,05,08,17,30,13.60
2010,05,08,17,31,13.60
2010,05,08,17,32,13.60
2010,05,08,17,33,13.60
2010,05,08,17,34,13.60
2010,05,08,17,35,13.70
2010,05,08,17,36,13.70
2010,05,08,17,37,13.80
2010,05,08,17,38,13.80
2010,05,08,17,39,13.90
2010,05,08,17,40,13.90
2010,05,08,17,41,13.90
2010,05,08,17,42,14.00